Regional Weather Roundup
Issued by NWS Sioux Falls, SD

Home | Current Version | Previous Version | Text Only | Print | Product List | Glossary On
Versions: 1 2 3 4 5 6 7 8 9 10 11 12 13 14 15 16 17 18 19 20 21 22 23 24 25 26 27 28 29 30 31 32 33 34 35 36 37 38 39 40 41 42 43 44 45 46 47 48 49 50
000
ASUS43 KFSD 312310
RWRFSD

WEATHER ROUNDUP FOR SE SOUTH DAKOTA/SW MINNESOTA/NW IOWA
NATIONAL WEATHER SERVICE SIOUX FALLS SD
600 PM CDT WED AUG 31 2016

NOTE: "FAIR" INDICATES FEW OR NO CLOUDS BELOW 12,000 FEET WITH NO
SIGNIFICANT WEATHER AND OR OBSTRUCTIONS TO VISIBILITY.


SDZ038>040-050-052>070-010000-
SOUTHEAST SOUTH DAKOTA

CITY           SKY/WX    TMP DP  RH WIND       PRES   REMARKS
BROOKINGS      MOSUNNY   79  59  50 E7        30.18F
CHAMBERLAIN    SUNNY     85  65  51 SE6       30.15S
HURON          SUNNY     83  59  44 SE6       30.14F
MADISON        FAIR      77  61  57 NE3       30.19F
MITCHELL       SUNNY     83  56  39 SE3       30.15F
SIOUX FALLS    MOSUNNY   81  61  50 NE8       30.17F
WINNER         FAIR      85  64  49 SE12      30.16F
YANKTON        SUNNY     81  57  44 E8        30.15S
$$

MNZ071-072-080-081-089-090-097-098-010000-
SOUTHWEST MINNESOTA

CITY           SKY/WX    TMP DP  RH WIND       PRES   REMARKS
FAIRMONT       SUNNY     76  58  53 N8        30.18S
JACKSON        SUNNY     75  55  50 NE6       30.19F
LUVERNE        SUNNY     79  55  44 NE6       30.18F
MARSHALL       SUNNY     78  59  51 E5        30.18F
MONTEVIDEO     SUNNY     79  61  53 NE3       30.19S
REDWOOD FALLS  SUNNY     79  57  46 N3        30.16F
TRACY          SUNNY     77  61  56 NE3       30.19S
WINDOM         SUNNY     75  57  53 NE6       30.19S
WORTHINGTON    SUNNY     77  59  53 NE6       30.19F
$$

IAZ001>003-012>014-020>022-031-032-NEZ013-014-SDZ071-010000-
NORTHWEST IOWA

CITY           SKY/WX    TMP DP  RH WIND       PRES   REMARKS
CHEROKEE       SUNNY     78  59  52 NE7       30.16F
DENISON        SUNNY     77  61  57 NE6       30.14S
ESTHERVILLE    SUNNY     75  60  59 NE9       30.17F
LE MARS        SUNNY     81  59  47 NE7       30.17F
ORANGE CITY    SUNNY     79  59  50 E6        30.18S
SHELDON        SUNNY     79  61  53 NE6       30.17S
SIOUX CITY     SUNNY     81  59  47 NE6       30.16S
SPENCER        SUNNY     79  57  46 NE12      30.18S
STORM LAKE     SUNNY     77  59  53 NE8       30.18S
$$

ABBREVIATIONS USED IN REMARKS
   TC - TEMPERATURE IN CELSIUS
  WCI - WIND CHILL INDEX
   HX - HEAT INDEX
  VSB - VISIBILITY





USA.gov is the U.S. government's official web portal to all federal, state and local government web resources and services.